#timestamp,LO_Frequency,Hit,StdDev 
1598112015.0,286047011.9,Y
1598112015.9,286047002.9,P
1598112035.8,286047005.6,P
1598112055.6,286047003.9,N
1598112075.5,286047002.1,N
1598112095.3,286047001.6,N
1598112115.1,286047001.4,N
1598112135.9,286047002.0,N
1598112155.7,286046999.7,N
1598112175.5,286047002.6,N
1598112195.4,286047002.7,N
1598112215.2,286047001.8,N
1598112235.0,286047002.2,N
1598112236.0,286047002.2,N
1598112255.8,286047002.8,N
1598112275.6,286047002.4,N
1598112295.5,286047000.3,N
1598112315.3,286047000.5,N
1598112335.2,286046999.9,N
1598112355.9,286047000.2,N
1598112375.7,286047000.8,N
1598112395.6,286047002.7,N
1598112415.4,286046999.8,N
1598112435.2,286047001.8,N
1598112455.1,286047001.6,N
1598112456.0,286047001.6,N
1598112475.8,286047003.1,N
1598112495.7,286047006.5,Y
1598112515.5,286047005.8,P
1598112535.3,286047006.2,P
1598112555.2,286047007.1,P
1598112575.0,286047004.7,N
1598112575.9,286047004.7,N
1598112595.8,286047001.4,N
1598112615.6,286047002.0,N
1598112635.4,286047002.1,N
1598112655.3,286047002.6,N
1598112675.1,286046999.8,N
1598112695.8,286047000.3,N
1598112715.7,286047000.0,N
1598112735.5,286047002.4,N
1598112755.4,286047000.2,N
1598112775.2,286047000.1,N
1598112795.0,286046999.7,N
1598112795.9,286046999.7,N
1598112815.8,286047002.4,N
1598112835.6,286047000.9,N
1598112855.4,286046998.3,N
1598112875.3,286047001.1,N
1598112895.1,286046998.4,N
1598112915.9,286046996.6,N
1598112935.7,286046996.9,N
1598112955.5,286046998.7,N
1598112975.4,286046998.8,N
1598112995.2,286046998.7,N
1598113015.0,286046998.7,N
1598113016.0,286046998.7,N
1598113035.8,286046999.0,N
1598113055.6,286046998.4,N
1598113075.5,286046998.6,N
1598113095.3,286046998.4,N
1598113115.1,286046999.2,N
1598113135.9,286046998.3,N
1598113155.7,286046999.0,N
1598113175.6,286046999.1,N
1598113195.4,286046996.9,N
1598113215.2,286046996.6,N
1598113235.1,286046996.9,N
1598113236.0,286046996.9,N
1598113285.8,286046999.2,E
1598113295.8,286046999.4,N
1598113315.6,286046999.0,P
1598113335.4,286046998.2,P
1598113355.3,286047002.3,Y
1598113375.1,286047000.2,P
1598113395.8,286047000.5,N
1598113415.7,286047000.5,N
1598113435.5,286046999.9,N
1598113455.4,286047002.6,Y
1598113475.2,286047002.3,P
1598113495.0,286047000.2,N
1598113495.9,286047000.2,N
1598113515.8,286047000.2,N
1598113535.6,286047000.5,N
1598113555.4,286047000.0,N
1598113575.3,286047000.3,N
1598113595.1,286047000.5,N
1598113615.9,286046998.6,N
1598113635.7,286046998.5,N
1598113655.5,286047001.1,N
1598113675.4,286047000.9,N
1598113695.2,286047000.7,N
1598113715.0,286047000.5,N
1598113715.9,286047000.5,N
1598113735.8,286047000.1,N
1598113755.6,286047001.2,N
1598113775.5,286047000.3,N
1598113795.3,286046999.7,N
1598113815.1,286047000.5,N
1598113835.9,286047000.3,N
1598113855.7,286047000.3,N
1598113875.6,286046999.9,N
1598113895.4,286047000.2,N
1598113915.2,286047000.4,N
1598113935.1,286047000.6,N
1598113936.0,286047000.6,N
1598113955.8,286047002.3,Y
1598113975.6,286047001.2,P
1598113995.5,286047001.1,N
1598114015.3,286046998.2,P
1598114035.2,286047000.7,N
1598114055.9,286047000.6,N
1598114075.7,286047000.9,N
1598114095.6,286047000.1,N
1598114115.4,286047002.3,N
1598114135.2,286047002.3,N
1598114155.1,286047000.3,N
1598114156.0,286047000.3,N
1598114175.8,286047000.5,N
1598114195.7,286047000.0,N
1598114215.5,286047000.4,N
1598114235.3,286047002.2,N
1598114255.2,286047002.1,N
1598114275.0,286047002.3,N
1598114275.9,286047002.3,N
1598114295.7,286046999.7,N
1598114315.6,286047001.9,N
1598114335.4,286047002.6,N
1598114355.3,286047002.3,N
1598114375.1,286046999.7,N
1598114376.0,286046999.7,N
1598114395.8,286047000.0,N
1598114415.7,286047000.0,N
1598114435.5,286047002.3,N
1598114455.3,286047002.5,N
1598114475.2,286047002.6,N
1598114495.0,286047001.4,N
1598114495.9,286047001.4,N
1598114515.8,286047002.5,N
1598114535.6,286047002.2,N
1598114555.4,286047002.4,N
1598114575.3,286047000.1,N
1598114595.1,286047002.3,N
1598114615.8,286047002.7,N
1598114635.7,286047002.4,N
1598114655.5,286047000.2,N
1598114675.4,286047000.7,N
1598114695.2,286047001.0,N
1598114715.0,286046999.8,N
1598114715.9,286046999.8,N
1598114735.8,286047002.8,N
1598114755.6,286047002.3,N
1598114775.5,286047002.8,N
1598114795.3,286047001.9,N
1598114815.1,286047001.5,N
1598114835.9,286047004.3,Y
1598114855.7,286047002.8,P
1598114875.5,286047002.5,P
1598114895.4,286047002.6,P
1598114915.2,286047002.1,Y
1598114935.1,286046996.5,P
1598114936.0,286046996.5,N
1598114955.8,286046998.5,N
1598114975.6,286046998.1,N
1598114995.5,286046998.6,N
1598115015.3,286046998.9,N
1598115035.1,286046998.1,N
1598115055.9,286046999.0,N
1598115075.7,286046999.1,N
1598115095.6,286046999.4,N
1598115115.4,286046998.5,N
1598115135.2,286047001.2,N
1598115155.1,286046998.4,N
1598115156.0,286046998.4,N
1598115175.8,286046999.3,N
1598115195.7,286046999.3,N
1598115215.5,286046998.4,N
1598115235.3,286046998.2,N
1598115255.2,286047001.0,N
1598115275.9,286046998.6,N
1598115295.7,286046998.5,N
1598115315.6,286047000.9,N
1598115335.4,286047000.9,N
1598115355.3,286047000.9,N
1598115375.1,286047001.2,N
1598115376.0,286047001.2,N
1598115395.8,286046998.4,N
1598115415.7,286046998.3,N
1598115435.5,286046999.3,N
1598115455.4,286046999.2,N
1598115475.2,286046997.3,N
1598115495.0,286046997.7,N
1598115495.9,286046997.7,N
1598115515.8,286046997.6,N
1598115535.6,286046996.7,N
1598115555.5,286046995.0,Y
1598115575.3,286046997.3,P
1598115595.1,286046997.3,P
